Year,Month,Day,Hour,Minute,Value (Times are PST for temperature in C)
2015,09,24,00,00,13.40
2015,09,24,00,01,13.40
2015,09,24,00,02,13.40
2015,09,24,00,03,13.40
2015,09,24,00,04,13.40
2015,09,24,00,05,13.40
2015,09,24,00,06,13.40
2015,09,24,00,07,13.30
2015,09,24,00,08,13.30
2015,09,24,00,09,13.30
2015,09,24,00,10,13.30
2015,09,24,00,11,13.30
2015,09,24,00,12,13.30
2015,09,24,00,13,13.30
2015,09,24,00,14,13.30
2015,09,24,00,15,13.30
2015,09,24,00,16,13.20
2015,09,24,00,17,13.20
2015,09,24,00,18,13.20
2015,09,24,00,19,13.20
2015,09,24,00,20,13.20
2015,09,24,00,21,13.20
2015,09,24,00,22,13.10
2015,09,24,00,23,13.10
2015,09,24,00,24,13.10
2015,09,24,00,25,13.10
2015,09,24,00,26,13.10
2015,09,24,00,27,13.10
2015,09,24,00,28,13.10
2015,09,24,00,29,13.00
2015,09,24,00,30,13.00
2015,09,24,00,31,13.00
2015,09,24,00,32,12.90
2015,09,24,00,33,12.90
2015,09,24,00,34,12.90
2015,09,24,00,35,12.90
2015,09,24,00,36,12.90
2015,09,24,00,37,12.80
2015,09,24,00,38,12.80
2015,09,24,00,39,12.80
2015,09,24,00,40,12.80
2015,09,24,00,41,12.80
2015,09,24,00,42,12.80
2015,09,24,00,43,12.80
2015,09,24,00,44,12.80
2015,09,24,00,45,12.80
2015,09,24,00,46,12.80
2015,09,24,00,47,12.80
2015,09,24,00,48,12.70
2015,09,24,00,49,12.70
2015,09,24,00,50,12.70
2015,09,24,00,51,12.70
2015,09,24,00,52,12.70
2015,09,24,00,53,12.60
2015,09,24,00,54,12.60
2015,09,24,00,55,12.60
2015,09,24,00,56,12.60
2015,09,24,00,57,12.60
2015,09,24,00,58,12.60
2015,09,24,00,59,12.60
2015,09,24,01,00,12.50
2015,09,24,01,01,12.60
2015,09,24,01,02,12.60
2015,09,24,01,03,12.60
2015,09,24,01,04,12.60
2015,09,24,01,05,12.60
2015,09,24,01,06,12.60
2015,09,24,01,07,12.60
2015,09,24,01,08,12.60
2015,09,24,01,09,12.60
2015,09,24,01,10,12.70
2015,09,24,01,11,12.70
2015,09,24,01,12,12.70
2015,09,24,01,13,12.70
2015,09,24,01,14,12.70
2015,09,24,01,15,12.70
2015,09,24,01,16,12.70
2015,09,24,01,17,12.70
2015,09,24,01,18,12.70
2015,09,24,01,19,12.70
2015,09,24,01,20,12.70
2015,09,24,01,21,12.70
2015,09,24,01,22,12.60
2015,09,24,01,23,12.60
2015,09,24,01,24,12.60
2015,09,24,01,25,12.60
2015,09,24,01,26,12.60
2015,09,24,01,27,12.50
2015,09,24,01,28,12.50
2015,09,24,01,29,12.50
2015,09,24,01,30,12.50
2015,09,24,01,31,12.40
2015,09,24,01,32,12.40
2015,09,24,01,33,12.40
2015,09,24,01,34,12.40
2015,09,24,01,35,12.40
2015,09,24,01,36,12.40
2015,09,24,01,37,12.40
2015,09,24,01,38,12.40
2015,09,24,01,39,12.40
2015,09,24,01,40,12.40
2015,09,24,01,41,12.40
2015,09,24,01,42,12.40
2015,09,24,01,43,12.40
2015,09,24,01,44,12.40
2015,09,24,01,45,12.40
2015,09,24,01,46,12.40
2015,09,24,01,47,12.40
2015,09,24,01,48,12.40
2015,09,24,01,49,12.50
2015,09,24,01,50,12.50
2015,09,24,01,51,12.60
2015,09,24,01,52,12.70
2015,09,24,01,53,12.70
2015,09,24,01,54,12.80
2015,09,24,01,55,12.80
2015,09,24,01,56,12.80
2015,09,24,01,57,12.80
2015,09,24,01,58,12.80
2015,09,24,01,59,12.90
2015,09,24,02,00,12.90
2015,09,24,02,01,12.90
2015,09,24,02,02,12.90
2015,09,24,02,03,12.90
2015,09,24,02,04,12.90
2015,09,24,02,05,12.90
2015,09,24,02,06,12.90
2015,09,24,02,07,12.90
2015,09,24,02,08,12.90
2015,09,24,02,09,12.80
2015,09,24,02,10,12.90
2015,09,24,02,11,12.90
2015,09,24,02,12,12.80
2015,09,24,02,13,12.80
2015,09,24,02,14,12.80
2015,09,24,02,15,12.80
2015,09,24,02,16,12.80
2015,09,24,02,17,12.80
2015,09,24,02,18,12.80
2015,09,24,02,19,12.80
2015,09,24,02,20,12.80
2015,09,24,02,21,12.80
2015,09,24,02,22,12.80
2015,09,24,02,23,12.80
2015,09,24,02,24,12.80
2015,09,24,02,25,12.80
2015,09,24,02,26,12.80
2015,09,24,02,27,12.80
2015,09,24,02,28,12.70
2015,09,24,02,29,12.70
2015,09,24,02,30,12.70
2015,09,24,02,31,12.70
2015,09,24,02,32,12.70
2015,09,24,02,33,12.70
2015,09,24,02,34,12.70
2015,09,24,02,35,12.70
2015,09,24,02,36,12.70
2015,09,24,02,37,12.60
2015,09,24,02,38,12.60
2015,09,24,02,39,12.60
2015,09,24,02,40,12.60
2015,09,24,02,41,12.60
2015,09,24,02,42,12.60
2015,09,24,02,43,12.60
2015,09,24,02,44,12.60
2015,09,24,02,45,12.60
2015,09,24,02,46,12.60
2015,09,24,02,47,12.60
2015,09,24,02,48,12.60
2015,09,24,02,49,12.70
2015,09,24,02,50,12.70
2015,09,24,02,51,12.60
2015,09,24,02,52,12.60
2015,09,24,02,53,12.60
2015,09,24,02,54,12.60
2015,09,24,02,55,12.60
2015,09,24,02,56,12.70
2015,09,24,02,57,12.60
2015,09,24,02,58,12.60
2015,09,24,02,59,12.60
2015,09,24,03,00,12.60
2015,09,24,03,01,12.70
2015,09,24,03,02,12.70
2015,09,24,03,03,12.70
2015,09,24,03,04,12.70
2015,09,24,03,05,12.70
2015,09,24,03,06,12.80
2015,09,24,03,07,12.80
2015,09,24,03,08,12.80
2015,09,24,03,09,12.90
2015,09,24,03,10,12.90
2015,09,24,03,11,12.90
2015,09,24,03,12,12.90
2015,09,24,03,13,13.00
2015,09,24,03,14,13.00
2015,09,24,03,15,13.00
2015,09,24,03,16,13.10
2015,09,24,03,17,13.10
2015,09,24,03,18,13.10
2015,09,24,03,19,13.10
2015,09,24,03,20,13.20
2015,09,24,03,21,13.20
2015,09,24,03,22,13.20
2015,09,24,03,23,13.30
2015,09,24,03,24,13.30
2015,09,24,03,25,13.40
2015,09,24,03,26,13.40
2015,09,24,03,27,13.50
2015,09,24,03,28,13.60
2015,09,24,03,29,13.60
2015,09,24,03,30,13.60
2015,09,24,03,31,13.70
2015,09,24,03,32,13.70
2015,09,24,03,33,13.70
2015,09,24,03,34,13.80
2015,09,24,03,35,13.80
2015,09,24,03,36,13.90
2015,09,24,03,37,13.90
2015,09,24,03,38,13.90
2015,09,24,03,39,14.00
2015,09,24,03,40,14.00
2015,09,24,03,41,14.00
2015,09,24,03,42,14.00
2015,09,24,03,43,14.10
2015,09,24,03,44,14.10
2015,09,24,03,45,14.10
2015,09,24,03,46,14.00
2015,09,24,03,47,14.00
2015,09,24,03,48,14.00
2015,09,24,03,49,14.00
2015,09,24,03,50,14.00
2015,09,24,03,51,14.00
2015,09,24,03,52,14.00
2015,09,24,03,53,14.00
2015,09,24,03,54,14.00
2015,09,24,03,55,14.00
2015,09,24,03,56,14.00
2015,09,24,03,57,14.00
2015,09,24,03,58,13.90
2015,09,24,03,59,13.90
2015,09,24,04,00,13.90
2015,09,24,04,01,13.90
2015,09,24,04,02,13.90
2015,09,24,04,03,13.90
2015,09,24,04,04,13.80
2015,09,24,04,05,13.80
2015,09,24,04,06,13.80
2015,09,24,04,07,13.80
2015,09,24,04,08,13.80
2015,09,24,04,09,13.80
2015,09,24,04,10,13.80
2015,09,24,04,11,13.70
2015,09,24,04,12,13.70
2015,09,24,04,13,13.70
2015,09,24,04,14,13.70
2015,09,24,04,15,13.60
2015,09,24,04,16,13.60
2015,09,24,04,17,13.60
2015,09,24,04,18,13.60
2015,09,24,04,19,13.60
2015,09,24,04,20,13.60
2015,09,24,04,21,13.50
2015,09,24,04,22,13.50
2015,09,24,04,23,13.50
2015,09,24,04,24,13.50
2015,09,24,04,25,13.40
2015,09,24,04,26,13.40
2015,09,24,04,27,13.40
2015,09,24,04,28,13.40
2015,09,24,04,29,13.40
2015,09,24,04,30,13.40
2015,09,24,04,31,13.40
2015,09,24,04,32,13.30
2015,09,24,04,33,13.30
2015,09,24,04,34,13.30
2015,09,24,04,35,13.30
2015,09,24,04,36,13.30
2015,09,24,04,37,13.30
2015,09,24,04,38,13.30
2015,09,24,04,39,13.30
2015,09,24,04,40,13.30
2015,09,24,04,41,13.30
2015,09,24,04,42,13.30
2015,09,24,04,43,13.30
2015,09,24,04,44,13.30
2015,09,24,04,45,13.30
2015,09,24,04,46,13.30
2015,09,24,04,47,13.30
2015,09,24,04,48,13.30
2015,09,24,04,49,13.30
2015,09,24,04,50,13.30
2015,09,24,04,51,13.30
2015,09,24,04,52,13.30
2015,09,24,04,53,13.30
2015,09,24,04,54,13.30
2015,09,24,04,55,13.20
2015,09,24,04,56,13.20
2015,09,24,04,57,13.20
2015,09,24,04,58,13.20
2015,09,24,04,59,13.20
2015,09,24,05,00,13.20
2015,09,24,05,01,13.20
2015,09,24,05,02,13.20
2015,09,24,05,03,13.20
2015,09,24,05,04,13.10
2015,09,24,05,05,13.10
2015,09,24,05,06,13.10
2015,09,24,05,07,13.10
2015,09,24,05,08,13.10
2015,09,24,05,09,13.10
2015,09,24,05,10,13.10
2015,09,24,05,11,13.10
2015,09,24,05,12,13.10
2015,09,24,05,13,13.10
2015,09,24,05,14,13.10
2015,09,24,05,15,13.10
2015,09,24,05,16,13.10
2015,09,24,05,17,13.10
2015,09,24,05,18,13.10
2015,09,24,05,19,13.10
2015,09,24,05,20,13.10
2015,09,24,05,21,13.10
2015,09,24,05,22,13.10
2015,09,24,05,23,13.10
2015,09,24,05,24,13.10
2015,09,24,05,25,13.10
2015,09,24,05,26,13.10
2015,09,24,05,27,13.10
2015,09,24,05,28,13.10
2015,09,24,05,29,13.00
2015,09,24,05,30,13.00
2015,09,24,05,31,13.00
2015,09,24,05,32,13.00
2015,09,24,05,33,13.00
2015,09,24,05,34,13.00
2015,09,24,05,35,13.00
2015,09,24,05,36,13.00
2015,09,24,05,37,13.00
2015,09,24,05,38,13.00
2015,09,24,05,39,12.90
2015,09,24,05,40,12.90
2015,09,24,05,41,12.90
2015,09,24,05,42,12.90
2015,09,24,05,43,12.90
2015,09,24,05,44,12.90
2015,09,24,05,45,12.90
2015,09,24,05,46,12.90
2015,09,24,05,47,12.90
2015,09,24,05,48,12.90
2015,09,24,05,49,12.90
2015,09,24,05,50,12.80
2015,09,24,05,51,12.80
2015,09,24,05,52,12.80
2015,09,24,05,53,12.80
2015,09,24,05,54,12.80
2015,09,24,05,55,12.80
2015,09,24,05,56,12.80
2015,09,24,05,57,12.80
2015,09,24,05,58,12.80
2015,09,24,05,59,12.80
2015,09,24,06,00,12.80
2015,09,24,06,01,12.80
2015,09,24,06,02,12.70
2015,09,24,06,03,12.70
2015,09,24,06,04,12.70
2015,09,24,06,05,12.70
2015,09,24,06,06,12.70
2015,09,24,06,07,12.70
2015,09,24,06,08,12.70
2015,09,24,06,09,12.70
2015,09,24,06,10,12.70
2015,09,24,06,11,12.70
2015,09,24,06,12,12.70
2015,09,24,06,13,12.70
2015,09,24,06,14,12.70
2015,09,24,06,15,12.70
2015,09,24,06,16,12.70
2015,09,24,06,17,12.70
2015,09,24,06,18,12.70
2015,09,24,06,19,12.70
2015,09,24,06,20,12.70
2015,09,24,06,21,12.70
2015,09,24,06,22,12.70
2015,09,24,06,23,12.70
2015,09,24,06,24,12.70
2015,09,24,06,25,12.70
2015,09,24,06,26,12.70
2015,09,24,06,27,12.80
2015,09,24,06,28,12.80
2015,09,24,06,29,12.80
2015,09,24,06,30,12.80
2015,09,24,06,31,12.80
2015,09,24,06,32,12.80
2015,09,24,06,33,12.80
2015,09,24,06,34,12.80
2015,09,24,06,35,12.80
2015,09,24,06,36,12.80
2015,09,24,06,37,12.80
2015,09,24,06,38,12.80
2015,09,24,06,39,12.80
2015,09,24,06,40,12.80
2015,09,24,06,41,12.80
2015,09,24,06,42,12.80
2015,09,24,06,43,12.80
2015,09,24,06,44,12.80
2015,09,24,06,45,12.80
2015,09,24,06,46,12.80
2015,09,24,06,47,12.80
2015,09,24,06,48,12.80
2015,09,24,06,49,12.80
2015,09,24,06,50,12.90
2015,09,24,06,51,12.90
2015,09,24,06,52,12.90
2015,09,24,06,53,12.90
2015,09,24,06,54,12.90
2015,09,24,06,55,12.90
2015,09,24,06,56,12.90
2015,09,24,06,57,12.80
2015,09,24,06,58,12.80
2015,09,24,06,59,12.80
2015,09,24,07,00,12.80
2015,09,24,07,01,12.80
2015,09,24,07,02,12.80
2015,09,24,07,03,12.80
2015,09,24,07,04,12.80
2015,09,24,07,05,12.80
2015,09,24,07,06,12.80
2015,09,24,07,07,12.70
2015,09,24,07,08,12.70
2015,09,24,07,09,12.70
2015,09,24,07,10,12.70
2015,09,24,07,11,12.70
2015,09,24,07,12,12.70
2015,09,24,07,13,12.70
2015,09,24,07,14,12.70
2015,09,24,07,15,12.70
2015,09,24,07,16,12.70
2015,09,24,07,17,12.70
2015,09,24,07,18,12.70
2015,09,24,07,19,12.70
2015,09,24,07,20,12.70
2015,09,24,07,21,12.70
2015,09,24,07,22,12.70
2015,09,24,07,23,12.60
2015,09,24,07,24,12.60
2015,09,24,07,25,12.60
2015,09,24,07,26,12.60
2015,09,24,07,27,12.60
2015,09,24,07,28,12.60
2015,09,24,07,29,12.60
2015,09,24,07,30,12.60
2015,09,24,07,31,12.60
2015,09,24,07,32,12.60
2015,09,24,07,33,12.60
2015,09,24,07,34,12.60
2015,09,24,07,35,12.70
2015,09,24,07,36,12.70
2015,09,24,07,37,12.70
2015,09,24,07,38,12.70
2015,09,24,07,39,12.70
2015,09,24,07,40,12.70
2015,09,24,07,41,12.70
2015,09,24,07,42,12.70
2015,09,24,07,43,12.70
2015,09,24,07,44,12.70
2015,09,24,07,45,12.70
2015,09,24,07,46,12.70
2015,09,24,07,47,12.70
2015,09,24,07,48,12.70
2015,09,24,07,49,12.70
2015,09,24,07,50,12.70
2015,09,24,07,51,12.80
2015,09,24,07,52,12.80
2015,09,24,07,53,12.80
2015,09,24,07,54,12.80
2015,09,24,07,55,12.80
2015,09,24,07,56,12.80
2015,09,24,07,57,12.80
2015,09,24,07,58,12.80
2015,09,24,07,59,12.90
2015,09,24,08,00,12.90
2015,09,24,08,01,12.90
2015,09,24,08,02,12.90
2015,09,24,08,03,12.90
2015,09,24,08,04,12.90
2015,09,24,08,05,12.90
2015,09,24,08,06,12.90
2015,09,24,08,07,12.90
2015,09,24,08,08,12.90
2015,09,24,08,09,12.90
2015,09,24,08,10,12.90
2015,09,24,08,11,12.90
2015,09,24,08,12,12.90
2015,09,24,08,13,12.90
2015,09,24,08,14,12.90
2015,09,24,08,15,12.90
2015,09,24,08,16,12.90
2015,09,24,08,17,12.90
2015,09,24,08,18,12.90
2015,09,24,08,19,12.90
2015,09,24,08,20,12.90
2015,09,24,08,21,13.00
2015,09,24,08,22,13.00
2015,09,24,08,23,13.00
2015,09,24,08,24,13.10
2015,09,24,08,25,13.10
2015,09,24,08,26,13.10
2015,09,24,08,27,13.20
2015,09,24,08,28,13.20
2015,09,24,08,29,13.20
2015,09,24,08,30,13.30
2015,09,24,08,31,13.30
2015,09,24,08,32,13.40
2015,09,24,08,33,13.40
2015,09,24,08,34,13.40
2015,09,24,08,35,13.40
2015,09,24,08,36,13.50
2015,09,24,08,37,13.50
2015,09,24,08,38,13.60
2015,09,24,08,39,13.60
2015,09,24,08,40,13.70
2015,09,24,08,41,13.70
2015,09,24,08,42,13.70
2015,09,24,08,43,13.80
2015,09,24,08,44,13.80
2015,09,24,08,45,13.90
2015,09,24,08,46,13.90
2015,09,24,08,47,14.00
2015,09,24,08,48,14.10
2015,09,24,08,49,14.10
2015,09,24,08,50,14.20
2015,09,24,08,51,14.20
2015,09,24,08,52,14.30
2015,09,24,08,53,14.30
2015,09,24,08,54,14.30
2015,09,24,08,55,14.30
2015,09,24,08,56,14.40
2015,09,24,08,57,14.40
2015,09,24,08,58,14.40
2015,09,24,08,59,14.40
2015,09,24,09,00,14.40
2015,09,24,09,01,14.40
2015,09,24,09,02,14.40
2015,09,24,09,03,14.40
2015,09,24,09,04,14.40
2015,09,24,09,05,14.40
2015,09,24,09,06,14.30
2015,09,24,09,07,14.30
2015,09,24,09,08,14.30
2015,09,24,09,09,14.30
2015,09,24,09,10,14.30
2015,09,24,09,11,14.30
2015,09,24,09,12,14.40
2015,09,24,09,13,14.40
2015,09,24,09,14,14.40
2015,09,24,09,15,14.50
2015,09,24,09,16,14.50
2015,09,24,09,17,14.60
2015,09,24,09,18,14.60
2015,09,24,09,19,14.60
2015,09,24,09,20,14.60
2015,09,24,09,21,14.60
2015,09,24,09,22,14.70
2015,09,24,09,23,14.70
2015,09,24,09,24,14.70
2015,09,24,09,25,14.70
2015,09,24,09,26,14.70
2015,09,24,09,27,14.70
2015,09,24,09,28,14.70
2015,09,24,09,29,14.70
2015,09,24,09,30,14.80
2015,09,24,09,31,14.80
2015,09,24,09,32,14.80
2015,09,24,09,33,14.80
2015,09,24,09,34,14.80
2015,09,24,09,35,14.80
2015,09,24,09,36,14.80
2015,09,24,09,37,14.80
2015,09,24,09,38,14.80
2015,09,24,09,39,14.80
2015,09,24,09,40,14.80
2015,09,24,09,41,14.80
2015,09,24,09,42,14.90
2015,09,24,09,43,14.90
2015,09,24,09,44,14.90
2015,09,24,09,45,14.90
2015,09,24,09,46,14.90
2015,09,24,09,47,14.90
2015,09,24,09,48,14.90
2015,09,24,09,49,14.90
2015,09,24,09,50,14.90
2015,09,24,09,51,15.00
2015,09,24,09,52,15.00
2015,09,24,09,53,15.00
2015,09,24,09,54,15.10
2015,09,24,09,55,15.10
2015,09,24,09,56,15.10
2015,09,24,09,57,15.10
2015,09,24,09,58,15.10
2015,09,24,09,59,15.10
2015,09,24,10,00,15.10
2015,09,24,10,01,15.20
2015,09,24,10,02,15.20
2015,09,24,10,03,15.20
2015,09,24,10,04,15.20
2015,09,24,10,05,15.20
2015,09,24,10,06,15.20
2015,09,24,10,07,15.20
2015,09,24,10,08,15.30
2015,09,24,10,09,15.30
2015,09,24,10,10,15.30
2015,09,24,10,11,15.30
2015,09,24,10,12,15.30
2015,09,24,10,13,15.30
2015,09,24,10,14,15.40
2015,09,24,10,15,15.40
2015,09,24,10,16,15.40
2015,09,24,10,17,15.40
2015,09,24,10,18,15.40
2015,09,24,10,19,15.40
2015,09,24,10,20,15.40
2015,09,24,10,21,15.40
2015,09,24,10,22,15.40
2015,09,24,10,23,15.40
2015,09,24,10,24,15.40
2015,09,24,10,25,15.40
2015,09,24,10,26,15.50
2015,09,24,10,27,15.50
2015,09,24,10,28,15.50
2015,09,24,10,29,15.50
2015,09,24,10,30,15.60
2015,09,24,10,31,15.60
2015,09,24,10,32,15.60
2015,09,24,10,33,15.60
2015,09,24,10,34,15.60
2015,09,24,10,35,15.70
2015,09,24,10,36,15.70
2015,09,24,10,37,15.70
2015,09,24,10,38,15.70
2015,09,24,10,39,15.70
2015,09,24,10,40,15.70
2015,09,24,10,41,15.70
2015,09,24,10,42,15.80
2015,09,24,10,43,15.80
2015,09,24,10,44,15.80
2015,09,24,10,45,15.80
2015,09,24,10,46,15.80
2015,09,24,10,47,15.80
2015,09,24,10,48,15.90
2015,09,24,10,49,15.90
2015,09,24,10,50,15.90
2015,09,24,10,51,15.90
2015,09,24,10,52,15.90
2015,09,24,10,53,15.90
2015,09,24,10,54,15.90
2015,09,24,10,55,16.00
2015,09,24,10,56,15.90
2015,09,24,10,57,16.00
2015,09,24,10,58,16.00
2015,09,24,10,59,16.00
2015,09,24,11,00,16.00
2015,09,24,11,01,16.00
2015,09,24,11,02,16.00
2015,09,24,11,03,16.00
2015,09,24,11,04,16.00
2015,09,24,11,05,16.00
2015,09,24,11,06,16.00
2015,09,24,11,07,16.00
2015,09,24,11,08,16.00
2015,09,24,11,09,16.00
2015,09,24,11,10,16.00
2015,09,24,11,11,16.10
2015,09,24,11,12,16.10
2015,09,24,11,13,16.10
2015,09,24,11,14,16.10
2015,09,24,11,15,16.10
2015,09,24,11,16,16.10
2015,09,24,11,17,16.10
2015,09,24,11,18,16.10
2015,09,24,11,19,16.10
2015,09,24,11,20,16.10
2015,09,24,11,21,16.20
2015,09,24,11,22,16.20
2015,09,24,11,23,16.20
2015,09,24,11,24,16.20
2015,09,24,11,25,16.20
2015,09,24,11,26,16.30
2015,09,24,11,27,16.30
2015,09,24,11,28,16.30
2015,09,24,11,29,16.30
2015,09,24,11,30,16.40
2015,09,24,11,31,16.40
2015,09,24,11,32,16.40
2015,09,24,11,33,16.50
2015,09,24,11,34,16.50
2015,09,24,11,35,16.50
2015,09,24,11,36,16.60
2015,09,24,11,37,16.60
2015,09,24,11,38,16.60
2015,09,24,11,39,16.60
2015,09,24,11,40,16.60
2015,09,24,11,41,16.60
2015,09,24,11,42,16.70
2015,09,24,11,43,16.70
2015,09,24,11,44,16.70
2015,09,24,11,45,16.70
2015,09,24,11,46,16.70
2015,09,24,11,47,16.70
2015,09,24,11,48,16.70
2015,09,24,11,49,16.80
2015,09,24,11,50,16.80
2015,09,24,11,51,16.80
2015,09,24,11,52,16.80
2015,09,24,11,53,16.80
2015,09,24,11,54,16.80
2015,09,24,11,55,16.80
2015,09,24,11,56,16.80
2015,09,24,11,57,16.80
2015,09,24,11,58,16.80
2015,09,24,11,59,16.80
2015,09,24,12,00,16.80
2015,09,24,12,01,16.80
2015,09,24,12,02,16.80
2015,09,24,12,03,16.80
2015,09,24,12,04,16.80
2015,09,24,12,05,16.80
2015,09,24,12,06,16.80
2015,09,24,12,07,16.70
2015,09,24,12,08,16.70
2015,09,24,12,09,16.70
2015,09,24,12,10,16.70
2015,09,24,12,11,16.70
2015,09,24,12,12,16.70
2015,09,24,12,13,16.70
2015,09,24,12,14,16.60
2015,09,24,12,15,16.60
2015,09,24,12,16,16.60
2015,09,24,12,17,16.60
2015,09,24,12,18,16.60
2015,09,24,12,19,16.60
2015,09,24,12,20,16.50
2015,09,24,12,21,16.50
2015,09,24,12,22,16.50
2015,09,24,12,23,16.50
2015,09,24,12,24,16.50
2015,09,24,12,25,16.50
2015,09,24,12,26,16.50
2015,09,24,12,27,16.40
2015,09,24,12,28,16.40
2015,09,24,12,29,16.40
2015,09,24,12,30,16.40
2015,09,24,12,31,16.40
2015,09,24,12,32,16.40
2015,09,24,12,33,16.30
2015,09,24,12,34,16.30
2015,09,24,12,35,16.30
2015,09,24,12,36,16.30
2015,09,24,12,37,16.20
2015,09,24,12,38,16.20
2015,09,24,12,39,16.10
2015,09,24,12,40,16.10
2015,09,24,12,41,16.00
2015,09,24,12,42,15.90
2015,09,24,12,43,15.90
2015,09,24,12,44,15.80
2015,09,24,12,45,15.80
2015,09,24,12,46,15.80
2015,09,24,12,47,15.80
2015,09,24,12,48,15.70
2015,09,24,12,49,15.70
2015,09,24,12,50,15.70
2015,09,24,12,51,15.60
2015,09,24,12,52,15.60
2015,09,24,12,53,15.60
2015,09,24,12,54,15.60
2015,09,24,12,55,15.60
2015,09,24,12,56,15.60
2015,09,24,12,57,15.60
2015,09,24,12,58,15.60
2015,09,24,12,59,15.50
2015,09,24,13,00,15.50
2015,09,24,13,01,15.50
2015,09,24,13,02,15.50
2015,09,24,13,03,15.50
2015,09,24,13,04,15.50
2015,09,24,13,05,15.50
2015,09,24,13,06,15.40
2015,09,24,13,07,15.40
2015,09,24,13,08,15.40
2015,09,24,13,09,15.40
2015,09,24,13,10,15.40
2015,09,24,13,11,15.30
2015,09,24,13,12,15.30
2015,09,24,13,13,15.30
2015,09,24,13,14,15.30
2015,09,24,13,15,15.30
2015,09,24,13,16,15.30
2015,09,24,13,17,15.30
2015,09,24,13,18,15.20
2015,09,24,13,19,15.20
2015,09,24,13,20,15.20
2015,09,24,13,21,15.20
2015,09,24,13,22,15.20
2015,09,24,13,23,15.20
2015,09,24,13,24,15.20
2015,09,24,13,25,15.20
2015,09,24,13,26,15.20
2015,09,24,13,27,15.20
2015,09,24,13,28,15.20
2015,09,24,13,29,15.20
2015,09,24,13,30,15.20
2015,09,24,13,31,15.20
2015,09,24,13,32,15.20
2015,09,24,13,33,15.10
2015,09,24,13,34,15.10
2015,09,24,13,35,15.10
2015,09,24,13,36,15.10
2015,09,24,13,37,15.00
2015,09,24,13,38,15.00
2015,09,24,13,39,14.90
2015,09,24,13,40,14.90
2015,09,24,13,41,14.90
2015,09,24,13,42,14.90
2015,09,24,13,43,14.80
2015,09,24,13,44,14.80
2015,09,24,13,45,14.80
2015,09,24,13,46,14.80
2015,09,24,13,47,14.80
2015,09,24,13,48,14.80
2015,09,24,13,49,14.80
2015,09,24,13,50,14.80
2015,09,24,13,51,14.80
2015,09,24,13,52,14.70
2015,09,24,13,53,14.60
2015,09,24,13,54,14.60
2015,09,24,13,55,14.60
2015,09,24,13,56,14.60
2015,09,24,13,57,14.50
2015,09,24,13,58,14.50
2015,09,24,13,59,14.50
2015,09,24,14,00,14.50
2015,09,24,14,01,14.50
2015,09,24,14,02,14.50
2015,09,24,14,03,14.40
2015,09,24,14,04,14.40
2015,09,24,14,05,14.40
2015,09,24,14,06,14.40
2015,09,24,14,07,14.40
2015,09,24,14,08,14.40
2015,09,24,14,09,14.40
2015,09,24,14,10,14.40
2015,09,24,14,11,14.50
2015,09,24,14,12,14.50
2015,09,24,14,13,14.50
2015,09,24,14,14,14.50
2015,09,24,14,15,14.40
2015,09,24,14,16,14.40
2015,09,24,14,17,14.30
2015,09,24,14,18,14.30
2015,09,24,14,19,14.30
2015,09,24,14,20,14.20
2015,09,24,14,21,14.20
2015,09,24,14,22,14.20
2015,09,24,14,23,14.20
2015,09,24,14,24,14.20
2015,09,24,14,25,14.20
2015,09,24,14,26,14.20
2015,09,24,14,27,14.20
2015,09,24,14,28,14.20
2015,09,24,14,29,14.20
2015,09,24,14,30,14.20
2015,09,24,14,31,14.20
2015,09,24,14,32,14.20
2015,09,24,14,33,14.20
2015,09,24,14,34,14.20
2015,09,24,14,35,14.10
2015,09,24,14,36,14.10
2015,09,24,14,37,14.10
2015,09,24,14,38,14.10
2015,09,24,14,39,14.10
2015,09,24,14,40,14.10
2015,09,24,14,41,14.10
2015,09,24,14,42,14.10
2015,09,24,14,43,14.10
2015,09,24,14,44,14.10
2015,09,24,14,45,14.10
2015,09,24,14,46,14.10
2015,09,24,14,47,14.10
2015,09,24,14,48,14.10
2015,09,24,14,49,14.10
2015,09,24,14,50,14.20
2015,09,24,14,51,14.20
2015,09,24,14,52,14.20
2015,09,24,14,53,14.20
2015,09,24,14,54,14.20
2015,09,24,14,55,14.20
2015,09,24,14,56,14.20
2015,09,24,14,57,14.20
2015,09,24,14,58,14.20
2015,09,24,14,59,14.20
2015,09,24,15,00,14.20
2015,09,24,15,01,14.20
2015,09,24,15,02,14.20
2015,09,24,15,03,14.20
2015,09,24,15,04,14.20
2015,09,24,15,05,14.20
2015,09,24,15,06,14.20
2015,09,24,15,07,14.20
2015,09,24,15,08,14.20
2015,09,24,15,09,14.20
2015,09,24,15,10,14.20
2015,09,24,15,11,14.20
2015,09,24,15,12,14.20
2015,09,24,15,13,14.20
2015,09,24,15,14,14.20
2015,09,24,15,15,14.20
2015,09,24,15,16,14.20
2015,09,24,15,17,14.20
2015,09,24,15,18,14.20
2015,09,24,15,19,14.20
2015,09,24,15,20,14.10
2015,09,24,15,21,14.10
2015,09,24,15,22,14.10
2015,09,24,15,23,14.00
2015,09,24,15,24,14.00
2015,09,24,15,25,13.90
2015,09,24,15,26,13.90
2015,09,24,15,27,13.80
2015,09,24,15,28,13.80
2015,09,24,15,29,13.80
2015,09,24,15,30,13.80
2015,09,24,15,31,13.80
2015,09,24,15,32,13.80
2015,09,24,15,33,13.80
2015,09,24,15,34,13.80
2015,09,24,15,35,13.70
2015,09,24,15,36,13.70
2015,09,24,15,37,13.70
2015,09,24,15,38,13.70
2015,09,24,15,39,13.70
2015,09,24,15,40,13.70
2015,09,24,15,41,13.70
2015,09,24,15,42,13.70
2015,09,24,15,43,13.70
2015,09,24,15,44,13.70
2015,09,24,15,45,13.60
2015,09,24,15,46,13.60
2015,09,24,15,47,13.60
2015,09,24,15,48,13.60
2015,09,24,15,49,13.60
2015,09,24,15,50,13.60
2015,09,24,15,51,13.50
2015,09,24,15,52,13.50
2015,09,24,15,53,13.50
2015,09,24,15,54,13.40
2015,09,24,15,55,13.40
2015,09,24,15,56,13.40
2015,09,24,15,57,13.40
2015,09,24,15,58,13.40
2015,09,24,15,59,13.40
2015,09,24,16,00,13.40
2015,09,24,16,01,13.30
2015,09,24,16,02,13.30
2015,09,24,16,03,13.30
2015,09,24,16,04,13.30
2015,09,24,16,05,13.30
2015,09,24,16,06,13.30
2015,09,24,16,07,13.30
2015,09,24,16,08,13.30
2015,09,24,16,09,13.30
2015,09,24,16,10,13.30
2015,09,24,16,11,13.30
2015,09,24,16,12,13.30
2015,09,24,16,13,13.30
2015,09,24,16,14,13.30
2015,09,24,16,15,13.30
2015,09,24,16,16,13.30
2015,09,24,16,17,13.30
2015,09,24,16,18,13.30
2015,09,24,16,19,13.30
2015,09,24,16,20,13.30
2015,09,24,16,21,13.30
2015,09,24,16,22,13.30
2015,09,24,16,23,13.30
2015,09,24,16,24,13.40
2015,09,24,16,25,13.40
2015,09,24,16,26,13.30
2015,09,24,16,27,13.30
2015,09,24,16,28,13.30
2015,09,24,16,29,13.30
2015,09,24,16,30,13.30
2015,09,24,16,31,13.30
2015,09,24,16,32,13.30
2015,09,24,16,33,13.30
2015,09,24,16,34,13.30
2015,09,24,16,35,13.30
2015,09,24,16,36,13.30
2015,09,24,16,37,13.30
2015,09,24,16,38,13.30
2015,09,24,16,39,13.30
2015,09,24,16,40,13.30
2015,09,24,16,41,13.30
2015,09,24,16,42,13.30
2015,09,24,16,43,13.30
2015,09,24,16,44,13.30
2015,09,24,16,45,13.30
2015,09,24,16,46,13.30
2015,09,24,16,47,13.30
2015,09,24,16,48,13.30
2015,09,24,16,49,13.30
2015,09,24,16,50,13.30
2015,09,24,16,51,13.30
2015,09,24,16,52,13.30
2015,09,24,16,53,13.30
2015,09,24,16,54,13.30
2015,09,24,16,55,13.30
2015,09,24,16,56,13.30
2015,09,24,16,57,13.20
2015,09,24,16,58,13.20
2015,09,24,16,59,13.20
2015,09,24,17,00,13.20
2015,09,24,17,01,13.30
2015,09,24,17,02,13.30
2015,09,24,17,03,13.30
2015,09,24,17,04,13.30
2015,09,24,17,05,13.30
2015,09,24,17,06,13.30
2015,09,24,17,07,13.30
2015,09,24,17,08,13.30
2015,09,24,17,09,13.30
2015,09,24,17,10,13.30
2015,09,24,17,11,13.30
2015,09,24,17,12,13.30
2015,09,24,17,13,13.30
2015,09,24,17,14,13.30
2015,09,24,17,15,13.30
2015,09,24,17,16,13.30
2015,09,24,17,17,13.30
2015,09,24,17,18,13.30
2015,09,24,17,19,13.30